Regional Weather Roundup
Issued by NWS

Home | Current Version | Previous Version | Graphics & Text | Print | Product List | Glossary Off
Versions: 1 2 3 4 5 6 7 8 9 10 11 12 13 14 15 16 17 18 19 20 21 22 23 24 25 26 27 28 29 30 31 32 33 34 35 36 37 38 39 40 41 42 43 44 45 46 47 48 49 50

000
ASUS43 KLSX 270907
RWRMO

WEATHER SUMMARY FOR MISSOURI
NATIONAL WEATHER SERVICE SPRINGFIELD MO
400 AM CDT FRI MAR 27 2015

NOTE: "FAIR" INDICATES FEW OR NO CLOUDS BELOW 12,000 FEET WITH NO
       SIGNIFICANT WEATHER AND/OR OBSTRUCTIONS TO VISIBILITY.
       CURRENT SKY AND/OR WEATHER CONDITIONS ARE NOT AVAILABLE FOR
       CHILLICOTHE AND FARMINGTON.

MOZ001>031-035>038-043-044-053-054-271000-
...NORTHERN AND WESTERN MISSOURI...

CITY           SKY/WX    TMP DP  RH WIND       PRES   REMARKS
KANSAS CTY INT CLOUDY    36  32  85 N12       30.16S WCI  28
KANSAS C DTWN  CLOUDY    38  32  79 N10       30.16S
LEE`S SUMMIT   CLOUDY    37  32  82 N14       30.15S WCI  28
ST JOSEPH      FAIR      32  30  92 N9        30.20R WCI  24
CHILLICOTHE      N/A     36  29  75 N7        30.18R
KIRKSVILLE     PTCLDY    29  22  75 N8        30.14S WCI  21

$$
MOZ066>068-077>081-088>096-101>105-271000-
...SOUTHWEST MISSOURI...

CITY           SKY/WX    TMP DP  RH WIND       PRES   REMARKS
SPRINGFIELD    CLOUDY    38  35  89 N7        30.07F
JOPLIN         LGT RAIN  39  36  89 NE10      30.11S

$$
MOZ032>034-039>042-045>050-055>058-069>072-271000-
...CENTRAL MISSOURI...

CITY           SKY/WX    TMP DP  RH WIND       PRES   REMARKS
COLUMBIA       FLURRIES  35  32  88 N12       30.11R WCI  27
JEFFERSON CITY CLOUDY    38  31  76 N10       30.11S
ROLLA          CLOUDY    37  28  70 MISG      30.05S
SEDALIA        LGT RAIN  38  33  82 N12       30.13R
WHITEMAN AFB   LGT RAIN  37  32  81 N12       30.12R WCI  30
WARRENSBURG    DRIZZLE   36  32  87 N6        30.14S
OSAGE BEACH    CLOUDY    39  28  65 N6        30.09R

$$
MOZ051-052-059>065-271000-
...EAST CENTRAL MISSOURI...

CITY           SKY/WX    TMP DP  RH WIND       PRES   REMARKS
ST LOUIS INTL  FLURRIES  38  24  57 N13       30.09R WCI  30
SPIRIT OF STL  CLOUDY    37  24  59 N8        30.09R
ST CHARLES     CLOUDY    36  25  64 N12       30.10R WCI  28

$$
MOZ072>076-082>087-097>100-106>115-271000-
...SOUTH CENTRAL AND SOUTHEAST MISSOURI...

CITY           SKY/WX    TMP DP  RH WIND       PRES   REMARKS
CAPE GIRARDEAU CLOUDY    34  33  96 W5        30.03F WCI  30
FARMINGTON     CLOUDY    39  27  60 N8        30.07S
POPLAR BLUFF   MOCLDY    38  32  79 NW3       30.03F
WEST PLAINS    LGT RAIN  40  30  67 MISG      30.06S

$$



USA.gov is the U.S. government's official web portal to all federal, state and local government web resources and services.